Home   Weather   Saint-Jérôme   Past weeks

Flag for Canada Past Weather in Saint-Jérôme, Quebec, Canada — Yesterday and Last 2 Weeks

Now
57 °F

Passing clouds.


Feels Like: 55 °F
Forecast: N/A
Wind: 8 mph from Northeast

Location: Montreal / Mirabel

Current Time: Sep 28, 2016 at 7:58:35 PM

Latest Report: Sep 28, 2016 at 7:00 PM


Visibility: 25 mi

Pressure: 30.33 "Hg

Humidity: 77%

Dew Point: 50 °F

Location of Saint-JérômeLocation

Past Weather in Saint-Jérôme — Graph

°F

Saint-Jérôme Temperature Yesterday

Maximum temperature yesterday: 66 °F (at 2:00 PM)
Minimum temperature yesterday: 50 °F (at 6:56 AM)
Average temperature yesterday: 57 °F

High & Low Weather Summary for the Past Weeks

 TemperatureHumidityPressure
High77 °F (Sep 18, 3:00 PM)100% (Sep 15, 12:00 AM)30.37 "Hg (Sep 15, 12:00 AM)
Low36 °F (Sep 26, 5:00 AM)29% (Sep 25, 4:00 PM)29.82 "Hg (Sep 27, 4:00 AM)
Average58 °F78%30.10 "Hg
* Reported Sep 13 6:00 PM — Sep 28 6:00 PM, Saint-Jérôme, Weather by CustomWeather, © 2016

Note: Actual official high and low records may vary slightly from our data, if they occured in-between our weather recording intervals... More about our weather records

Advertising

Saint-Jérôme Weather History for the Previous 24 Hours

Scroll right to see more
 ConditionsComfort  
Time TempWeatherWind HumidityBarometerVisibility
6:00 PM
Wed, Sep 28
61 °FPassing clouds.8 mph72%30.31 "Hg45 mi
5:00 PM63 °FPassing clouds.9 mph73%30.29 "Hg45 mi
4:00 PM63 °FPassing clouds.10 mph73%30.27 "Hg35 mi
3:00 PM64 °FPartly sunny.9 mph68%30.27 "Hg45 mi
2:00 PM61 °FPartly sunny.5 mph77%30.28 "Hg45 mi
1:00 PM61 °FPartly sunny.6 mph77%30.27 "Hg25 mi
12:00 PM57 °FPartly sunny.9 mph82%30.26 "Hg25 mi
11:00 AM55 °FOvercast.9 mph88%30.25 "Hg25 mi
10:00 AM54 °FLow clouds.8 mph88%30.24 "Hg10 mi
9:00 AM52 °FLow clouds.8 mph94%30.22 "Hg10 mi
8:00 AM52 °FLow clouds.7 mph94%30.20 "Hg10 mi
7:00 AM52 °FLow clouds.8 mph94%30.18 "Hg10 mi
6:00 AM52 °FLow clouds.8 mph94%30.14 "Hg10 mi
5:00 AM52 °FLow clouds.7 mph94%30.12 "Hg10 mi
4:00 AM52 °FLow clouds.7 mph94%30.10 "Hg15 mi
3:00 AM52 °FLow clouds.6 mph94%30.09 "Hg25 mi
2:00 AM52 °FLow clouds.7 mph94%30.08 "Hg25 mi
1:00 AM54 °FLow clouds.6 mph88%30.06 "Hg25 mi
12:00 AM54 °FLow clouds.9 mph94%30.04 "Hg25 mi
11:00 PM
Tue, Sep 27
55 °FPassing clouds.5 mph94%30.03 "Hg25 mi
10:00 PM55 °FPassing clouds.No wind88%30.00 "Hg25 mi
9:00 PM52 °FPassing clouds.3 mph94%29.97 "Hg25 mi
8:00 PM54 °FPartly cloudy.No wind88%29.94 "Hg25 mi
7:00 PM59 °FPartly cloudy.2 mph72%29.91 "Hg25 mi
Weather by CustomWeather, © 2016

See weather overviewHow to use our weather pages